Location: Beaurecueil
(43.5122°N, 5.5450°E)
Time: 07:19:51
(UTC+00:00)

Cosmos 1939 Rocket - Pass Details

Date: 23 January 2021
Orbit: 531 x 585 km, 97.4° (Epoch: 04 March)

Event Time Altitude Azimuth Distance (km) Brightness Sun altitude
Rises 17:32:43 0° 165° (SSE) 2,790 6.5 -10.1°
Reaches altitude 10° 17:34:52 10° 165° (SSE) 1,891 5.6 -10.5°
Maximum altitude 17:38:59 87° 74° (ENE) 583 2.9 -11.2°
Drops below altitude 10° 17:43:05 10° 348° (NNW) 1,883 5.5 -12.0°
Sets 17:45:13 0° 349° (NNW) 2,777 6.4 -12.3°
